FW6908 Weather Reports


Display with metric or nautical units.
time (UTC)temp
F
wind
direction
speed
MPH
gust
MPH
rain 1hr
in
rain 24hr
in
rain mn
in
humidity
%
barometer
mb
20260901173048 86 118 5.0 13.0 0.00 0.00 0.00 45 1015.2
20260901172548 86 87 8.0 14.0 0.00 0.00 0.00 44 1015.1
20260901172048 86 106 7.0 14.0 0.00 0.00 0.00 44 1015.0
20260901171551 87 97 7.0 14.0 0.00 0.00 0.00 44 1015.2
20260901171047 87 88 6.0 11.0 0.00 0.00 0.00 44 1015.1
20260901170547 87 71 7.0 13.0 0.00 0.00 0.00 44 1015.1
20260901170148 87 60 8.0 13.0 0.00 0.00 0.00 44 1015.1
20260901165546 87 78 9.0 13.0 0.00 0.00 0.00 44 1015.0
20260901165046 87 97 5.0 13.0 0.00 0.00 0.00 44 1015.1
20260901164548 88 103 7.0 11.0 0.00 0.00 0.00 43 1015.1
20260901164045 88 96 5.0 12.0 0.00 0.00 0.00 43 1015.0
20260901163545 88 111 7.0 12.0 0.00 0.00 0.00 42 1014.9
20260901163045 89 104 4.0 12.0 0.00 0.00 0.00 42 1014.9
20260901162544 89 83 6.0 11.0 0.00 0.00 0.00 41 1014.8
20260901162044 89 126 5.0 11.0 0.00 0.00 0.00 41 1014.8
20260901161546 89 109 4.0 13.0 0.00 0.00 0.00 40 1014.8
20260901161046 90 94 5.0 13.0 0.00 0.00 0.00 39 1014.7
20260901160545 91 102 3.0 15.0 0.00 0.00 0.00 39 1014.7
20260901160050 91 88 7.0 15.0 0.00 0.00 0.00 37 1014.6
20260901155543 91 86 4.0 15.0 0.00 0.00 0.00 37 1014.6
20260901155043 91 68 7.0 16.0 0.00 0.00 0.00 36 1014.6
20260901154542 91 90 9.0 16.0 0.00 0.00 0.00 36 1014.6
20260901154039 92 100 6.0 16.0 0.00 0.00 0.00 36 1014.5
20260901153538 92 38 7.0 17.0 0.00 0.00 0.00 36 1014.5
20260901153038 92 5 6.0 17.0 0.00 0.00 0.00 36 1014.5
20260901152538 92 52 8.0 17.0 0.00 0.00 0.00 36 1014.4
20260901152041 92 83 8.0 18.0 0.00 0.00 0.00 36 1014.4
20260901151537 92 117 9.0 18.0 0.00 0.00 0.00 36 1014.4
20260901151038 92 67 10.0 18.0 0.00 0.00 0.00 36 1014.5
20260901150537 92 69 11.0 19.0 0.00 0.00 0.00 36 1014.5
20260901150054 92 94 12.0 19.0 0.00 0.00 0.00 36 1014.4
20260901145535 92 51 9.0 19.0 0.00 0.00 0.00 36 1014.4
20260901145035 92 109 14.0 19.0 0.00 0.00 0.00 36 1014.3
20260901144534 92 45 11.0 17.0 0.00 0.00 0.00 36 1014.3
20260901144034 92 74 10.0 18.0 0.00 0.00 0.00 36 1014.5
20260901143530 92 56 12.0 18.0 0.00 0.00 0.00 37 1014.6
20260901143030 92 80 12.0 18.0 0.00 0.00 0.00 36 1014.5
20260901142530 93 112 11.0 20.0 0.00 0.00 0.00 36 1014.4
20260901142029 92 74 12.0 20.0 0.00 0.00 0.00 36 1014.4
20260901141528 92 82 12.0 20.0 0.00 0.00 0.00 36 1014.4
20260901141027 92 82 13.0 20.0 0.00 0.00 0.00 36 1014.5
20260901140526 92 65 11.0 20.0 0.00 0.00 0.00 36 1014.5
20260901140026 92 113 9.0 20.0 0.00 0.00 0.00 36 1014.6
20260901135526 93 82 10.0 20.0 0.00 0.00 0.00 36 1014.7
20260901135029 93 76 13.0 22.0 0.00 0.00 0.00 35 1014.7
20260901134530 93 83 10.0 22.0 0.00 0.00 0.00 36 1014.6
20260901134025 93 98 15.0 20.0 0.00 0.00 0.00 36 1014.7
20260901133525 93 105 11.0 21.0 0.00 0.00 0.00 36 1014.6
20260901133021 93 61 14.0 21.0 0.00 0.00 0.00 36 1014.6
20260901132520 93 84 11.0 22.0 0.00 0.00 0.00 35 1014.7
20260901132021 93 90 13.0 22.0 0.00 0.00 0.00 35 1014.5
20260901131522 93 55 10.0 20.0 0.00 0.00 0.00 35 1014.6
20260901131016 94 89 12.0 23.0 0.00 0.00 0.00 35 1014.6
20260901130515 93 79 14.0 23.0 0.00 0.00 0.00 35 1014.6
20260901130014 93 106 11.0 22.0 0.00 0.00 0.00 35 1014.6
20260901125512 93 120 9.0 18.0 0.00 0.00 0.00 35 1014.6
20260901125011 93 78 10.0 20.0 0.00 0.00 0.00 35 1014.7
20260901124510 93 99 13.0 20.0 0.00 0.00 0.00 35 1014.7
20260901124009 93 128 10.0 19.0 0.00 0.00 0.00 35 1014.8
20260901123511 94 90 11.0 21.0 0.00 0.00 0.00 35 1014.9
20260901123015 93 109 10.0 21.0 0.00 0.00 0.00 34 1014.9
20260901122505 94 105 11.0 18.0 0.00 0.00 0.00 34 1015.1
20260901122003 93 86 9.0 18.0 0.00 0.00 0.00 35 1015.1
20260901121502 94 113 9.0 19.0 0.00 0.00 0.00 35 1015.1
20260901121101 93 71 9.0 21.0 0.00 0.00 0.00 34 1015.3
20260901120604 93 73 13.0 22.0 0.00 0.00 0.00 34 1015.1
20260901120113 93 96 9.0 21.0 0.00 0.00 0.00 34 1015.2
20260901115604 93 119 12.0 21.0 0.00 0.00 0.00 34 1015.3
20260901115100 93 91 11.0 18.0 0.00 0.00 0.00 34 1015.3
20260901114559 94 103 8.0 21.0 0.00 0.00 0.00 33 1015.3
20260901114057 93 48 12.0 21.0 0.00 0.00 0.00 33 1015.2
20260901113555 93 96 8.0 20.0 0.00 0.00 0.00 34 1015.3
20260901113059 93 74 13.0 22.0 0.00 0.00 0.00 34 1015.3
20260901112553 93 107 10.0 25.0 0.00 0.00 0.00 34 1015.2
20260901112051 93 58 13.0 20.0 0.00 0.00 0.00 34 1015.2
20260901111550 93 34 14.0 20.0 0.00 0.00 0.00 34 1015.2
20260901111047 93 70 13.0 23.0 0.00 0.00 0.00 34 1015.3
20260901110548 93 61 14.0 23.0 0.00 0.00 0.00 34 1015.3
20260901110045 93 44 9.0 18.0 0.00 0.00 0.00 34 1015.3
20260901105543 93 60 9.0 20.0 0.00 0.00 0.00 34 1015.3
20260901105045 93 71 12.0 20.0 0.00 0.00 0.00 33 1015.4
20260901104551 93 81 10.0 22.0 0.00 0.00 0.00 33 1015.5
20260901104042 92 60 13.0 22.0 0.00 0.00 0.00 33 1015.4
20260901103540 92 67 10.0 19.0 0.00 0.00 0.00 33 1015.6
20260901103041 92 117 10.0 16.0 0.00 0.00 0.00 34 1015.6
20260901102540 92 55 10.0 20.0 0.00 0.00 0.00 33 1015.7
20260901102041 92 79 10.0 22.0 0.00 0.00 0.00 33 1015.7
20260901101540 92 74 10.0 22.0 0.00 0.00 0.00 34 1015.9
20260901101039 92 80 14.0 22.0 0.00 0.00 0.00 33 1015.8
20260901100539 92 74 6.0 17.0 0.00 0.00 0.00 34 1015.8
20260901100044 92 90 8.0 18.0 0.00 0.00 0.00 34 1015.6
20260901095537 92 112 13.0 18.0 0.00 0.00 0.00 34 1015.6
20260901095037 92 66 8.0 24.0 0.00 0.00 0.00 34 1015.8
20260901094537 91 84 17.0 24.0 0.00 0.00 0.00 33 1015.8
20260901094038 91 135 11.0 19.0 0.00 0.00 0.00 33 1015.8
20260901093535 91 32 8.0 21.0 0.00 0.00 0.00 34 1015.8
20260901093034 91 61 10.0 18.0 0.00 0.00 0.00 35 1015.8
20260901092534 92 91 10.0 20.0 0.00 0.00 0.00 35 1015.7
20260901092034 92 53 9.0 20.0 0.00 0.00 0.00 35 1015.8
20260901091534 92 61 5.0 16.0 0.00 0.00 0.00 36 1015.6
20260901091031 91 68 4.0 17.0 0.00 0.00 0.00 36 1015.7
20260901090531 91 65 7.0 16.0 0.00 0.00 0.00 36 1015.7
20260901090027 90 94 9.0 20.0 0.00 0.00 0.00 37 1015.6
20260901085526 90 86 11.0 23.0 0.00 0.00 0.00 37 1015.6
20260901085025 90 78 13.0 23.0 0.00 0.00 0.00 36 1015.6
20260901084541 90 97 9.0 19.0 0.00 0.00 0.00 37 1015.8
20260901084024 90 59 7.0 20.0 0.00 0.00 0.00 37 1015.8
20260901083521 90 50 11.0 20.0 0.00 0.00 0.00 37 1015.7
20260901083022 90 28 10.0 17.0 0.00 0.00 0.00 37 1015.7
20260901082519 90 95 9.0 19.0 0.00 0.00 0.00 38 1015.6
20260901082017 89 92 8.0 21.0 0.00 0.00 0.00 39 1015.6
20260901081522 89 46 10.0 21.0 0.00 0.00 0.00 39 1015.6
20260901081015 89 117 13.0 21.0 0.00 0.00 0.00 39 1015.7
20260901080514 89 58 11.0 21.0 0.00 0.00 0.00 39 1015.7
20260901080018 89 87 13.0 19.0 0.00 0.00 0.00 39 1015.7
20260901075512 88 80 10.0 17.0 0.00 0.00 0.00 40 1015.6
20260901075011 88 96 7.0 16.0 0.00 0.00 0.00 41 1015.6
20260901074509 87 113 9.0 17.0 0.00 0.00 0.00 42 1015.6
20260901074010 87 90 8.0 17.0 0.00 0.00 0.00 44 1015.6
20260901073506 86 130 6.0 15.0 0.00 0.00 0.00 45 1015.5
20260901073005 86 128 9.0 15.0 0.00 0.00 0.00 45 1015.6
20260901072503 86 107 10.0 17.0 0.00 0.00 0.00 45 1015.4
20260901072001 86 59 11.0 17.0 0.00 0.00 0.00 45 1015.5
20260901071601 86 124 8.0 12.0 0.00 0.00 0.00 45 1015.4
20260901071100 86 149 4.0 12.0 0.00 0.00 0.00 46 1015.5
20260901070557 85 99 7.0 11.0 0.00 0.00 0.00 45 1015.3
20260901070057 85 32 5.0 10.0 0.00 0.00 0.00 46 1015.4
20260901065558 85 76 6.0 12.0 0.00 0.00 0.00 47 1015.4
20260901065053 85 106 7.0 12.0 0.00 0.00 0.00 47 1015.5
20260901064552 85 121 0.0 8.0 0.00 0.00 0.00 48 1015.4
20260901064051 84 60 3.0 8.0 0.00 0.00 0.00 48 1015.5
20260901063548 84 119 3.0 8.0 0.00 0.00 0.00 48 1015.5
20260901063106 83 94 2.0 4.0 0.00 0.00 0.00 49 1015.6
20260901062545 82 285 0.0 3.0 0.00 0.00 0.00 50 1015.7
20260901062044 82 289 0.0 3.0 0.00 0.00 0.00 50 1015.6
20260901061547 82 98 0.0 4.0 0.00 0.00 0.00 50 1015.5
20260901061042 82 78 1.0 4.0 0.00 0.00 0.00 51 1015.7
20260901060542 81 83 1.0 4.0 0.00 0.00 0.00 51 1015.6
20260901060040 81 287 0.0 1.0 0.00 0.00 0.00 52 1015.7
20260901055542 81 290 0.0 1.0 0.00 0.00 0.00 51 1015.7
20260901055039 80 290 0.0 1.0 0.00 0.00 0.00 52 1015.9
20260901054538 80 295 0.0 2.0 0.00 0.00 0.00 52 1015.9
20260901054037 79 294 0.0 3.0 0.00 0.00 0.00 53 1015.9
20260901053535 79 326 1.0 5.0 0.00 0.00 0.00 53 1015.8
20260901053041 79 350 2.0 5.0 0.00 0.00 0.00 54 1015.8
20260901052532 78 360 3.0 5.0 0.00 0.00 0.00 54 1015.8
20260901052031 78 23 1.0 4.0 0.00 0.00 0.00 54 1015.8
20260901051530 77 342 2.0 4.0 0.00 0.00 0.00 55 1015.8
20260901051030 77 360 2.0 6.0 0.00 0.00 0.00 55 1015.8
20260901050529 77 360 4.0 6.0 0.00 0.00 0.00 53 1015.8
20260901050027 77 33 0.0 4.0 0.00 0.00 0.00 54 1015.7
20260901045527 76 18 1.0 4.0 0.00 0.00 0.00 54 1015.7
20260901045024 76 30 1.0 4.0 0.00 0.00 0.00 54 1015.6
20260901044530 76 72 0.0 3.0 0.00 0.00 0.00 55 1015.4
20260901044021 75 57 2.0 3.0 0.00 0.00 0.00 56 1015.5
20260901043519 74 35 2.0 4.0 0.00 0.00 0.00 57 1015.5
20260901043021 74 5 2.0 4.0 0.00 0.00 0.00 57 1015.5
20260901042516 74 344 2.0 4.0 0.00 0.00 0.00 56 1015.4
20260901042019 75 45 0.0 4.0 0.00 0.00 0.00 56 1015.3
20260901041516 74 40 1.0 6.0 0.00 0.00 0.00 56 1015.2
20260901041014 74 51 3.0 6.0 0.00 0.00 0.00 56 1015.2
20260901040513 74 15 4.0 6.0 0.00 0.00 0.00 56 1015.2
20260901040013 74 23 3.0 6.0 0.00 0.00 0.00 55 1015.1
20260901035513 74 15 1.0 5.0 0.00 0.00 0.00 55 1015.1
20260901035012 74 11 2.0 4.0 0.00 0.00 0.00 55 1015.1
20260901034518 74 49 1.0 6.0 0.00 0.00 0.00 55 1015.0
20260901034011 73 22 1.0 6.0 0.00 0.00 0.00 56 1015.0
20260901033511 74 15 4.0 8.0 0.00 0.00 0.00 55 1015.0
20260901033009 74 11 1.0 8.0 0.00 0.00 0.00 55 1014.9
20260901032509 75 30 3.0 8.0 0.00 0.00 0.00 54 1014.9
20260901032008 75 92 0.0 4.0 0.00 0.00 0.00 53 1014.9
20260901031509 75 103 1.0 4.0 0.00 0.00 0.00 53 1014.9
20260901031008 75 74 1.0 4.0 0.00 0.00 0.00 53 1014.9
20260901030507 75 46 1.0 4.0 0.00 0.00 0.00 53 1015.0
20260901030007 75 43 2.0 6.0 0.00 0.00 0.00 53 1015.0
20260901025508 75 15 4.0 6.0 0.00 0.00 0.00 53 1015.1
20260901025007 75 38 3.0 5.0 0.00 0.00 0.00 53 1014.9
20260901024508 76 58 0.0 6.0 0.00 0.00 0.00 52 1014.9
20260901024009 75 43 3.0 6.0 0.00 0.00 0.00 53 1014.8
20260901023505 75 35 1.0 5.0 0.00 0.00 0.00 52 1014.8
20260901023005 76 20 1.0 6.0 0.00 0.00 0.00 52 1014.9
20260901022505 76 59 1.0 6.0 0.00 0.00 0.00 51 1014.8
20260901022005 77 57 0.0 5.0 0.00 0.00 0.00 50 1014.8
20260901021505 76 53 1.0 5.0 0.00 0.00 0.00 50 1014.8
20260901021005 76 97 3.0 5.0 0.00 0.00 0.00 51 1014.8
20260901020505 76 56 1.0 5.0 0.00 0.00 0.00 51 1014.8
20260901020005 76 59 0.0 5.0 0.00 0.00 0.00 52 1014.7
20260901015508 75 33 1.0 6.0 0.00 0.00 0.00 52 1014.8
20260901015005 75 13 4.0 6.0 0.00 0.00 0.00 52 1014.8
20260901014503 75 18 2.0 5.0 0.00 0.00 0.00 52 1014.8
20260901014004 75 17 2.0 4.0 0.00 0.00 0.00 52 1014.9
20260901013501 76 26 2.0 4.0 0.00 0.00 0.00 52 1014.7
20260901013001 75 32 1.0 3.0 0.00 0.00 0.00 52 1014.8
20260901012501 75 50 0.0 5.0 0.00 0.00 0.00 52 1014.9
20260901012101 75 34 1.0 5.0 0.00 0.00 0.00 52 1014.9
20260901011600 76 30 2.0 5.0 0.00 0.00 0.00 51 1014.9
20260901011059 76 61 1.0 4.0 0.00 0.00 0.00 51 1014.9
20260901010559 76 63 1.0 5.0 0.00 0.00 0.00 50 1014.9
20260901010059 76 355 2.0 5.0 0.00 0.00 0.00 51 1014.8
20260901005558 76 5 1.0 8.0 0.00 0.00 0.00 50 1014.9
20260901005057 77 15 1.0 8.0 0.00 0.00 0.00 49 1014.9
20260901004615 77 5 0.0 8.0 0.00 0.00 0.00 49 1014.9
20260901004101 77 98 3.0 7.0 0.00 0.00 0.00 48 1015.0
20260901003559 77 55 4.0 8.0 0.00 0.00 0.00 48 1015.1
20260901003056 77 67 5.0 9.0 0.00 0.00 0.00 48 1015.0
20260901002555 77 55 5.0 10.0 0.00 0.00 0.00 48 1015.0
20260901002055 77 39 6.0 10.0 0.00 0.00 0.00 48 1015.0
20260901001559 77 38 5.0 9.0 0.00 0.00 0.00 48 1015.1
20260901001054 77 45 3.0 9.0 0.00 0.00 0.00 48 1015.1
20260901000556 77 55 6.0 9.0 0.00 0.00 0.00 48 1015.1
20260901000103 77 30 5.0 9.0 0.00 0.00 0.00 48 1015.1
20260831235553 77 44 6.0 9.0 0.00 0.00 0.00 48 1015.2
20260831235053 77 20 5.0 8.0 0.00 0.00 0.00 48 1015.2
20260831234552 77 11 5.0 9.0 0.00 0.00 0.00 48 1015.2
20260831234052 77 5 5.0 8.0 0.00 0.00 0.00 49 1015.3
20260831233551 76 16 5.0 6.0 0.00 0.00 0.00 49 1015.3
20260831233051 77 5 4.0 6.0 0.00 0.00 0.00 49 1015.3
20260831232548 77 19 3.0 6.0 0.00 0.00 0.00 48 1015.4
20260831232048 77 34 3.0 6.0 0.00 0.00 0.00 48 1015.4
20260831231546 78 20 3.0 5.0 0.00 0.00 0.00 47 1015.4
20260831231045 78 5 3.0 6.0 0.00 0.00 0.00 46 1015.4
20260831230547 79 44 3.0 7.0 0.00 0.00 0.00 45 1015.6
20260831230046 79 82 3.0 10.0 0.00 0.00 0.00 45 1015.6
20260831225544 80 63 6.0 10.0 0.00 0.00 0.00 45 1015.5
20260831225044 80 61 6.0 10.0 0.00 0.00 0.00 44 1015.6
20260831224544 80 67 6.0 10.0 0.00 0.00 0.00 44 1015.6
20260831224044 80 76 5.0 10.0 0.00 0.00 0.00 44 1015.7
20260831223543 80 72 5.0 8.0 0.00 0.00 0.00 44 1015.7
20260831223042 80 79 4.0 8.0 0.00 0.00 0.00 44 1015.7
20260831222542 80 90 5.0 8.0 0.00 0.00 0.00 44 1015.8
20260831222040 80 90 4.0 9.0 0.00 0.00 0.00 45 1015.8
20260831221540 79 95 5.0 9.0 0.00 0.00 0.00 45 1015.9
20260831221039 79 103 3.0 8.0 0.00 0.00 0.00 46 1016.0
20260831220539 78 74 4.0 7.0 0.00 0.00 0.00 46 1016.0
20260831220039 78 46 3.0 4.0 0.00 0.00 0.00 46 1016.0
20260831215539 78 48 1.0 5.0 0.00 0.00 0.00 47 1016.0
20260831215038 78 9 2.0 5.0 0.00 0.00 0.00 47 1016.0
20260831214540 78 44 0.0 4.0 0.00 0.00 0.00 47 1015.9
20260831214039 78 44 2.0 5.0 0.00 0.00 0.00 47 1016.0
20260831213536 79 12 3.0 6.0 0.00 0.00 0.00 46 1016.0
20260831213034 79 25 4.0 7.0 0.00 0.00 0.00 46 1016.1
20260831212534 80 344 3.0 8.0 0.00 0.00 0.00 44 1016.0
20260831212032 80 76 2.0 8.0 0.00 0.00 0.00 43 1016.0
20260831211532 80 63 3.0 6.0 0.00 0.00 0.00 43 1016.0
20260831211030 80 56 3.0 6.0 0.00 0.00 0.00 44 1016.1
20260831210530 80 42 3.0 5.0 0.00 0.00 0.00 45 1016.1
20260831210029 80 5 3.0 4.0 0.00 0.00 0.00 44 1016.1
20260831205529 80 346 1.0 3.0 0.00 0.00 0.00 44 1016.1
20260831205030 81 344 1.0 3.0 0.00 0.00 0.00 44 1016.1
20260831204529 81 355 0.0 3.0 0.00 0.00 0.00 44 1016.1
20260831204028 81 355 2.0 5.0 0.00 0.00 0.00 44 1016.0
20260831203528 81 355 2.0 5.0 0.00 0.00 0.00 44 1016.0
20260831203027 82 355 3.0 6.0 0.00 0.00 0.00 43 1016.1
20260831202527 82 5 2.0 6.0 0.00 0.00 0.00 43 1016.1
20260831202027 82 48 4.0 6.0 0.00 0.00 0.00 43 1016.1
20260831201527 82 30 3.0 5.0 0.00 0.00 0.00 44 1016.1
20260831201027 82 66 1.0 6.0 0.00 0.00 0.00 44 1016.1
20260831200527 82 70 3.0 7.0 0.00 0.00 0.00 44 1016.1
20260831200027 82 78 4.0 10.0 0.00 0.00 0.00 44 1016.1
20260831195527 82 63 4.0 10.0 0.00 0.00 0.00 44 1016.1
20260831195027 81 79 3.0 8.0 0.00 0.00 0.00 44 1016.1
20260831194526 82 38 2.0 9.0 0.00 0.00 0.00 44 1016.0
20260831194028 82 29 3.0 9.0 0.00 0.00 0.00 44 1016.0
20260831193527 82 5 0.0 3.0 0.00 0.00 0.00 44 1016.0
20260831193037 81 81 0.0 4.0 0.00 0.00 0.00 44 1016.0
20260831192525 81 80 0.0 5.0 0.00 0.00 0.00 44 1016.0
20260831192028 81 80 2.0 5.0 0.00 0.00 0.00 44 1016.0
20260831191525 82 114 2.0 9.0 0.00 0.00 0.00 44 1016.0
20260831191027 82 123 2.0 9.0 0.00 0.00 0.00 44 1016.0
20260831190525 82 134 2.0 11.0 0.00 0.00 0.00 43 1016.0
20260831190039 82 102 3.0 11.0 0.00 0.00 0.00 43 1015.9
20260831185525 82 88 6.0 11.0 0.00 0.00 0.00 43 1015.9
20260831185027 82 69 5.0 10.0 0.00 0.00 0.00 43 1015.7
20260831184524 82 95 5.0 10.0 0.00 0.00 0.00 43 1015.7
20260831184026 82 90 5.0 10.0 0.00 0.00 0.00 43 1015.5
20260831183524 82 75 3.0 10.0 0.00 0.00 0.00 43 1015.5
20260831183023 82 70 4.0 13.0 0.00 0.00 0.00 42 1015.4
20260831182523 82 72 7.0 13.0 0.00 0.00 0.00 42 1015.4
20260831182023 82 68 5.0 11.0 0.00 0.00 0.00 42 1015.3
20260831181524 83 60 6.0 11.0 0.00 0.00 0.00 42 1015.3
20260831181023 83 82 5.0 10.0 0.00 0.00 0.00 42 1015.3
20260831180522 83 72 4.0 11.0 0.00 0.00 0.00 42 1015.2
20260831180022 83 59 7.0 11.0 0.00 0.00 0.00 41 1015.2
20260831175622 83 71 7.0 13.0 0.00 0.00 0.00 41 1015.3
20260831175022 83 92 6.0 13.0 0.00 0.00 0.00 41 1015.2
20260831174521 83 62 7.0 13.0 0.00 0.00 0.00 41 1015.2
20260831174021 83 90 8.0 16.0 0.00 0.00 0.00 41 1015.1
20260831173521 84 67 8.0 16.0 0.00 0.00 0.00 41 1015.1